GSAT0233 (GALILEO 33)

Last updated on Mon Sep 21 2026 00:02:49 GMT+0000 (Coordinated Universal Time)

1 67160U 25302A 26263.54416159 .00000028 00000+0 00000+0 0 9994 2 67160 54.3973 99.4130 0003067 143.2870 216.1900 1.70474439 4743
UTC large
Height (km)
Speed (km/s)
/
Latitude / Longitude
Inclination (degrees)
Orbital Period (minutes)
Azimuth
Elevation
Range (km)
Doppler Factor

Next 0 passes for location: London (51.5072 / 0.1276)

No passes found over London.
GSAT0233 (GALILEO 33)